This demonstration page uses our WeatherBlox Daily Observations layout. Learn more.

Left ArrowRight Arrow

Hourly Observations for May 7, 2015

Temp ( °F °C ) Dew Point ( °F °C ) Humidity (%) Winds ( mph kmh ) Pressure ( in mb ) Visibility ( mi km ) Precip ( " mm )
12:10 am 00:10 Mostly Cloudy with Light Rain 66 19 61 16 83 83 SE 8 13 29.71 1006 8 13 0.00 0.00
12:25 am 00:25 Mostly Cloudy with Heavy Rain and Scattered Storms 66 19 61 16 83 83 S 16 26 29.71 1006 3 5 0.00 0.00
12:33 am 00:33 Mostly Cloudy with Heavy Rain 66 19 61 16 83 83 S 17 28 29.71 1006 3 4 0.00 0.00
12:36 am 00:36 Mostly Cloudy with Heavy Rain 64 18 61 16 88 88 S 14 22 29.71 1006 3 4 0.00 0.00
12:40 am 00:40 Mostly Cloudy with Strong Thunderstorms 64 18 61 16 88 88 S 20 31 29.74 1007 3 4 0.00 0.00
12:44 am 00:44 Mostly Cloudy with Strong Thunderstorms 63 17 59 15 88 88 S 21 33 29.74 1007 3 5 0.00 0.00
12:56 am 00:56 Cloudy with Heavy Rain and Nearby Thunderstorms 61 16 59 15 94 94 S 16 26 29.74 1007 3 5 0.00 0.00
12:58 am 00:58 Cloudy with Heavy Rain and Nearby Thunderstorms 62 16.4 59 14.9 91 91 S 14 22 29.77 1008 3 5 0.49 12.45
1:31 am 01:31 Cloudy with Strong Thunderstorms 61 16 59 15 94 94 SSE 8 13 29.74 1007 4 6 0.00 0.00
1:38 am 01:38 Cloudy with Strong Thunderstorms 61 16 59 15 94 94 S 7 11 29.74 1007 3 4 0.00 0.00
1:46 am 01:46 Cloudy with Heavy Rain 61 16 59 15 94 94 S 10 17 29.74 1007 2 3 0.00 0.00
1:49 am 01:49 Cloudy with Heavy Rain 61 16 59 15 94 94 S 10 17 29.74 1007 3 5 0.00 0.00
1:58 am 01:58 Cloudy with Heavy Rain 61 16.1 59 15.1 94 94 SSE 8 13 29.77 1008 3 5 0.46 11.68
2:24 am 02:24 Cloudy with Thunderstorms 61 16 59 15 94 94 WSW 3 6 29.71 1006 4 6 0.00 0.00
2:53 am 02:53 Mostly Cloudy 61 16 59 15 94 94 W 8 13 29.71 1006 10 16 0.00 0.00
2:58 am 02:58 Partly Cloudy with Thunderstorms 61 15.9 59 15.2 96 96 WNW 8 13 29.75 1007 10 16 0.11 2.79
3:13 am 03:13 Mostly Cloudy 61 16 59 15 94 94 NNW 6 9 29.71 1006 10 16 0.00 0.00
3:20 am 03:20 Mostly Cloudy 61 16 61 16 100 100 WNW 8 13 29.71 1006 10 16 0.00 0.00
3:41 am 03:41 Cloudy with Thunderstorms 61 16 59 15 94 94 N 7 11 29.71 1006 10 16 0.00 0.00
3:48 am 03:48 Cloudy with Thunderstorms 61 16 59 15 94 94 WNW 5 7 29.71 1006 10 16 0.00 0.00
3:51 am 03:51 Cloudy with Thunderstorms 61 16 59 15 94 94 NW 8 13 29.71 1006 10 16 0.00 0.00
3:54 am 03:54 Cloudy with Thunderstorms 61 16 59 15 94 94 NNW 7 11 29.71 1006 9 14 0.00 0.00
3:56 am 03:56 Mostly Cloudy with Light Rain and Scattered Storms 61 16 59 15 94 94 N 6 9 29.71 1006 8 13 0.00 0.00
3:58 am 03:58 Mostly Cloudy with Light Rain and Scattered Storms 61 16.1 60 15.3 95 95 N 5 7 29.75 1007 8 13 0.00 0.03
4:00 am 04:00 Mostly Cloudy with Light Rain and Scattered Storms 61 16 59 15 94 94 VRB 2 4 29.71 1006 4 6 0.00 0.00
4:01 am 04:01 Mostly Cloudy with Light Rain and Scattered Storms 61 16 59 15 94 94 VRB 2 4 29.71 1006 3 4 0.00 0.00
4:03 am 04:03 Mostly Cloudy with Thunderstorms 61 16 59 15 94 94 WNW 5 7 29.71 1006 2 3 0.00 0.00
4:15 am 04:15 Mostly Cloudy with Thunderstorms 61 16 59 15 94 94 VRB 5 7 29.71 1006 8 13 0.00 0.00
4:19 am 04:19 Partly Cloudy with Light Rain 61 16 59 15 94 94 W 12 19 29.74 1007 9 14 0.00 0.00
4:24 am 04:24 Mostly Cloudy with Heavy Rain 61 16 61 16 100 100 W 8 13 29.74 1007 5 8 0.00 0.00
4:28 am 04:28 Mostly Cloudy with Heavy Rain 61 16 61 16 100 100 W 8 13 29.74 1007 4 6 0.00 0.00
4:37 am 04:37 Mostly Cloudy with Heavy Rain 61 16 59 15 94 94 WSW 2 4 29.74 1007 3 5 0.00 0.00
4:52 am 04:52 Cloudy with Nearby Thunderstorms 61 16 59 15 94 94 NNE 3 6 29.74 1007 10 16 0.00 0.00
4:58 am 04:58 Cloudy with Thunderstorms 61 16 60 15.3 96 96 NNE 3 6 29.75 1007 10 16 0.11 2.79
5:11 am 05:11 Cloudy with Light Rain 61 16 59 15 94 94 ESE 9 15 29.74 1007 10 16 0.00 0.00
5:23 am 05:23 Mostly Cloudy with Thunderstorms 61 16 59 15 94 94 SE 14 22 29.74 1007 8 13 0.00 0.00
5:31 am 05:31 Mostly Cloudy with Strong Thunderstorms 61 16 59 15 94 94 ESE 9 15 29.74 1007 5 8 0.00 0.00
5:37 am 05:37 Mostly Cloudy with Strong Thunderstorms 61 16 59 15 94 94 SE 8 13 29.74 1007 3 4 0.00 0.00
5:39 am 05:39 Mostly Cloudy with Heavy Rain and Scattered Storms 61 16 59 15 94 94 ESE 7 11 29.74 1007 2 3 0.00 0.00
5:43 am 05:43 Mostly Cloudy with Strong Thunderstorms 61 16 59 15 94 94 SE 9 15 29.74 1007 3 4 0.00 0.00
5:53 am 05:53 Cloudy with Thunderstorms 61 16 59 15 94 94 NNE 3 6 29.71 1006 4 6 0.00 0.00
5:58 am 05:58 Cloudy with Thunderstorms 61 15.9 60 15.5 97 97 E 5 7 29.74 1007 6 10 0.32 8.13
6:10 am 06:10 Mostly Cloudy 61 16 59 15 94 94 E 9 15 29.71 1006 10 16 0.00 0.00
6:18 am 06:18 Cloudy with Light Rain 61 16 59 15 94 94 E 9 15 29.71 1006 10 16 0.00 0.00
6:20 am 06:20 Cloudy 61 16 59 15 94 94 E 9 15 29.71 1006 10 16 0.00 0.00
6:22 am 06:22 Partly Cloudy with Light Rain 61 16 59 15 94 94 E 8 13 29.71 1006 10 16 0.00 0.00
6:28 am 06:28 Mostly Sunny 63 17 59 15 88 88 ESE 8 13 29.71 1006 10 16 0.00 0.00
6:58 am 06:58 Sunny 63 17 60 15.4 90 90 ESE 12 19 29.72 1006 10 16 0.00 0.03
7:58 am 07:58 Cloudy 63 17.4 60 15.6 89 89 SE 13 20 29.74 1007 10 16 0.00 0.00
8:58 am 08:58 Mostly Cloudy 65 18.4 60 15.8 85 85 SE 16 26 29.75 1007 10 16 0.00 0.00
9:58 am 09:58 Partly Cloudy 69 20.7 62 16.8 78 78 SSE 16 26 29.75 1008 9 14 0.00 0.00
10:16 am 10:16 Mostly Cloudy 70 21 61 16 73 73 S 13 20 29.71 1006 10 16 0.00 0.00
10:25 am 10:25 Cloudy 70 21 61 16 73 73 S 15 24 29.71 1006 10 16 0.00 0.00
10:58 am 10:58 Partly Cloudy 72 22 63 17.1 74 74 S 14 22 29.75 1008 10 16 0.00 0.00
11:02 am 11:02 Mostly Cloudy 72 22 63 17 73 73 S 12 19 29.71 1006 10 16 0.00 0.00
11:08 am 11:08 Mostly Cloudy 73 23 64 18 74 74 S 12 19 29.71 1006 10 16 0.00 0.00
11:14 am 11:14 Mostly Cloudy 73 23 63 17 69 69 SSW 17 28 29.71 1006 10 16 0.00 0.00
11:26 am 11:26 Mostly Cloudy 73 23 63 17 69 69 S 14 22 29.71 1006 10 16 0.00 0.00
11:58 am 11:58 Partly Cloudy 75 23.9 63 17.2 66 66 S 13 20 29.76 1008 10 16 0.00 0.00
12:58 pm 12:58 Partly Cloudy 77 25 63 17 61 61 SSW 9 15 29.78 1009 10 16 0.00 0.00
1:58 pm 13:58 Mostly Cloudy 76 24.6 62 16.6 61 61 SSW 12 19 29.78 1009 10 16 0.00 0.00
2:58 pm 14:58 Sunny 77 25.2 60 15.5 55 55 WSW 10 17 29.76 1008 7 11 0.00 0.00
3:58 pm 15:58 Sunny 79 26 60 15.4 52 52 SW 9 15 29.75 1008 10 16 0.00 0.00
4:58 pm 16:58 Sunny 79 26.2 62 16.5 55 55 WSW 12 19 29.76 1008 10 16 0.00 0.00
5:58 pm 17:58 Mostly Cloudy 74 23.6 63 17.3 68 68 S 14 22 29.78 1009 10 16 0.00 0.00
6:58 pm 18:58 Mostly Sunny 74 23.4 61 16.3 64 64 WSW 9 15 29.82 1010 10 16 0.00 0.00
7:58 pm 19:58 Mostly Cloudy with Nearby Thunderstorms 71 21.6 58 14.7 65 65 S 18 30 29.87 1011 10 16 0.00 0.00
8:08 pm 20:08 Mostly Cloudy 66 19 55 13 68 68 SSW 15 24 29.83 1010 10 16 0.00 0.00
8:58 pm 20:58 Clear 64 17.9 56 13.5 76 76 WNW 5 7 29.83 1010 10 16 0.00 0.00
9:58 pm 21:58 Clear 66 18.7 57 14.1 75 75 WNW 14 22 29.85 1011 10 16 0.00 0.00
10:58 pm 22:58 Cloudy 62 16.8 55 12.7 77 77 NW 9 15 29.93 1013 10 16 0.00 0.00
11:19 pm 23:19 Cloudy 63 17 55 13 77 77 NNW 9 15 29.91 1013 10 16 0.00 0.00
11:41 pm 23:41 Cloudy 61 16 54 12 77 77 WNW 12 19 29.91 1013 10 16 0.00 0.00
11:58 pm 23:58 Cloudy 60 15.7 53 11.9 78 78 NW 10 17 29.95 1014 10 16 0.00 0.00

Powered by AerisWeather